Location: Amsterdam
(30.7274°N, 84.4357°W)
Time: 21:17:29
(UTC+00:00)

Tiros 1 despin weight - Pass Details

Date: 17 February 2026
Orbit: 556 x 593 km, 48.2° (Epoch: 7 March)

Event Time Altitude Azimuth Distance (km) Brightness Sun altitude
Rises 21:48:51 0° 284° (WNW) 2,735 ? 19.0°
Reaches altitude 10° 21:52:26 10° 315° (NW) 1,836 ? 18.3°
Maximum altitude 21:54:08 12° 340° (NNW) 1,701 ? 18.0°
Drops below altitude 10° 21:55:50 10° 4° (N) 1,835 ? 17.7°
Sets 21:59:25 0° 35° (NE) 2,731 ? 17.0°
